Hourly Weather Cerro Cora

Today, 19 June, Saturday

Time Temperature Precipitation Wind Pressure Humidity
00:00 +21°C° 0 mm 4 mps 717 mmHg 87%
01:00 +21°C° 0 mm 3 mps 717 mmHg 88%
02:00 +20°C° 0 mm 3 mps 716 mmHg 89%
03:00 +20°C° 0 mm 3 mps 716 mmHg 90%
04:00 +20°C° 0 mm 3 mps 716 mmHg 91%
05:00 +20°C° 0 mm 3 mps 716 mmHg 90%
06:00 +20°C° 0 mm 3 mps 716 mmHg 90%
07:00 +20°C° 0 mm 2 mps 717 mmHg 89%
08:00 +22°C° 0 mm 3 mps 717 mmHg 77%
09:00 +26°C° 0 mm 4 mps 718 mmHg 65%
10:00 +29°C° 0 mm 5 mps 718 mmHg 52%
11:00 +30°C° 0 mm 5 mps 718 mmHg 47%
12:00 +33°C° 0 mm 5 mps 718 mmHg 42%
13:00 +34°C° 0 mm 5 mps 717 mmHg 37%
14:00 +33°C° 0 mm 5 mps 717 mmHg 39%
15:00 +32°C° 0 mm 5 mps 716 mmHg 42%
16:00 +30°C° 0 mm 5 mps 716 mmHg 45%
17:00 +29°C° 0 mm 5 mps 716 mmHg 50%
18:00 +28°C° 0 mm 5 mps 716 mmHg 56%
19:00 +26°C° 0 mm 5 mps 717 mmHg 62%
20:00 +25°C° 0 mm 5 mps 717 mmHg 67%
21:00 +23°C° 0 mm 5 mps 717 mmHg 72%
22:00 +22°C° 0 mm 5 mps 718 mmHg 77%
23:00 +21°C° 0 mm 4 mps 717 mmHg 81%

Tomorrow, 20 June, Sunday

Time Temperature Precipitation Wind Pressure Humidity
00:00 +21°C° 0 mm 4 mps 717 mmHg 84%
01:00 +20°C° 0 mm 3 mps 717 mmHg 87%
02:00 +20°C° 0 mm 3 mps 716 mmHg 89%
03:00 +20°C° 0 mm 3 mps 716 mmHg 90%
04:00 +19°C° 0 mm 2 mps 716 mmHg 92%
05:00 +19°C° 0 mm 2 mps 716 mmHg 91%
06:00 +19°C° 0 mm 2 mps 716 mmHg 91%
07:00 +20°C° 0 mm 2 mps 717 mmHg 90%
08:00 +22°C° 0 mm 3 mps 717 mmHg 78%
09:00 +26°C° 0 mm 4 mps 718 mmHg 67%
10:00 +29°C° 0 mm 6 mps 718 mmHg 55%
11:00 +30°C° 0 mm 6 mps 718 mmHg 51%
12:00 +32°C° 0 mm 6 mps 717 mmHg 48%
13:00 +33°C° 0 mm 6 mps 717 mmHg 45%
14:00 +32°C° 0 mm 6 mps 716 mmHg 46%
15:00 +30°C° 0 mm 5 mps 716 mmHg 48%
16:00 +30°C° 0 mm 5 mps 715 mmHg 50%
17:00 +29°C° 0 mm 5 mps 716 mmHg 54%
18:00 +27°C° 0 mm 5 mps 716 mmHg 58%
19:00 +26°C° 0 mm 5 mps 716 mmHg 62%
20:00 +25°C° 0 mm 4 mps 716 mmHg 70%
21:00 +22°C° 0 mm 4 mps 717 mmHg 77%
22:00 +21°C° 0 mm 3 mps 717 mmHg 85%
23:00 +21°C° 0 mm 3 mps 717 mmHg 88%

Day after tomorrow, 21 June, Monday

Time Temperature Precipitation Wind Pressure Humidity
00:00 +20°C° 0 mm 3 mps 716 mmHg 90%
01:00 +20°C° 0 mm 2 mps 716 mmHg 93%
02:00 +20°C° 0 mm 2 mps 716 mmHg 94%
03:00 +20°C° 0 mm 2 mps 716 mmHg 95%
04:00 +19°C° 0 mm 2 mps 716 mmHg 96%
05:00 +19°C° 0 mm 2 mps 716 mmHg 95%
06:00 +20°C° 0 mm 1 mps 716 mmHg 95%
07:00 +20°C° 0 mm 1 mps 716 mmHg 95%
08:00 +23°C° 0 mm 2 mps 717 mmHg 82%
09:00 +26°C° 0 mm 4 mps 717 mmHg 69%
10:00 +28°C° 0 mm 5 mps 718 mmHg 57%
11:00 +30°C° 0 mm 5 mps 717 mmHg 50%
12:00 +32°C° 0 mm 5 mps 717 mmHg 44%
13:00 +34°C° 0 mm 6 mps 716 mmHg 38%
14:00 +34°C° 0 mm 6 mps 716 mmHg 37%
15:00 +34°C° 0 mm 6 mps 715 mmHg 36%
16:00 +33°C° 0 mm 6 mps 715 mmHg 35%
17:00 +30°C° 0 mm 6 mps 715 mmHg 42%
18:00 +28°C° 0 mm 6 mps 715 mmHg 48%
19:00 +26°C° 0 mm 5 mps 716 mmHg 55%
20:00 +23°C° 0 mm 5 mps 716 mmHg 64%
21:00 +22°C° 0 mm 4 mps 716 mmHg 74%
22:00 +20°C° 0 mm 4 mps 716 mmHg 83%
23:00 +20°C° 0 mm 3 mps 716 mmHg 86%

22 June, Tuesday

Time Temperature Precipitation Wind Pressure Humidity
00:00 +20°C° 0 mm 3 mps 716 mmHg 89%
01:00 +19°C° 0 mm 3 mps 716 mmHg 91%
02:00 +19°C° 0 mm 3 mps 716 mmHg 92%
03:00 +19°C° 0 mm 3 mps 715 mmHg 93%
04:00 +19°C° 0 mm 2 mps 715 mmHg 94%
05:00 +19°C° 0 mm 2 mps 715 mmHg 93%
06:00 +19°C° 0 mm 2 mps 715 mmHg 92%
07:00 +19°C° 0 mm 2 mps 716 mmHg 91%
08:00 +22°C° 0 mm 3 mps 716 mmHg 75%
09:00 +26°C° 0 mm 4 mps 717 mmHg 60%
10:00 +29°C° 0 mm 6 mps 717 mmHg 44%
11:00 +30°C° 0 mm 5 mps 717 mmHg 38%
12:00 +33°C° 0 mm 5 mps 717 mmHg 32%
13:00 +35°C° 0 mm 5 mps 716 mmHg 26%
14:00 +35°C° 0 mm 5 mps 716 mmHg 26%
15:00 +35°C° 0 mm 6 mps 715 mmHg 25%
16:00 +34°C° 0 mm 6 mps 715 mmHg 25%
17:00 +32°C° 0 mm 5 mps 715 mmHg 34%
18:00 +29°C° 0 mm 5 mps 715 mmHg 44%
19:00 +26°C° 0 mm 5 mps 715 mmHg 53%
20:00 +25°C° 0 mm 4 mps 716 mmHg 64%
21:00 +22°C° 0 mm 4 mps 716 mmHg 74%
22:00 +21°C° 0 mm 4 mps 716 mmHg 85%
23:00 +21°C° 0 mm 3 mps 716 mmHg 87%

23 June, Wednesday

Time Temperature Precipitation Wind Pressure Humidity
00:00 +20°C° 0 mm 3 mps 716 mmHg 90%
01:00 +20°C° 0 mm 3 mps 715 mmHg 92%
02:00 +20°C° 0 mm 3 mps 715 mmHg 93%
03:00 +20°C° 0 mm 3 mps 715 mmHg 94%
04:00 +20°C° 0 mm 2 mps 715 mmHg 95%
05:00 +20°C° 0 mm 2 mps 715 mmHg 94%
06:00 +20°C° 0 mm 2 mps 715 mmHg 94%
07:00 +20°C° 0 mm 2 mps 716 mmHg 93%
08:00 +24°C° 0 mm 3 mps 716 mmHg 81%
09:00 +26°C° 0 mm 4 mps 716 mmHg 69%
10:00 +28°C° 0 mm 6 mps 717 mmHg 57%
11:00 +29°C° 0 mm 6 mps 717 mmHg 53%
12:00 +30°C° 0 mm 6 mps 716 mmHg 49%
13:00 +32°C° 0 mm 6 mps 716 mmHg 45%
14:00 +30°C° 0 mm 5 mps 716 mmHg 46%
15:00 +30°C° 0 mm 5 mps 715 mmHg 47%
16:00 +30°C° 0 mm 5 mps 715 mmHg 48%
17:00 +28°C° 0 mm 5 mps 715 mmHg 56%
18:00 +27°C° 0 mm 5 mps 715 mmHg 64%
19:00 +25°C° 0 mm 5 mps 716 mmHg 71%
20:00 +23°C° 0 mm 4 mps 716 mmHg 76%
21:00 +22°C° 0 mm 4 mps 716 mmHg 81%
22:00 +21°C° 0 mm 4 mps 717 mmHg 85%
23:00 +21°C° 0 mm 4 mps 716 mmHg 87%

24 June, Thursday

Time Temperature Precipitation Wind Pressure Humidity
00:00 +20°C° 0 mm 3 mps 716 mmHg 89%
01:00 +20°C° 0 mm 3 mps 716 mmHg 91%
02:00 +20°C° 0 mm 3 mps 716 mmHg 91%
03:00 +20°C° 0 mm 3 mps 716 mmHg 92%
04:00 +19°C° 0 mm 3 mps 715 mmHg 93%
05:00 +19°C° 0 mm 3 mps 716 mmHg 93%
06:00 +19°C° 0 mm 3 mps 716 mmHg 92%
07:00 +19°C° 0 mm 3 mps 716 mmHg 92%
08:00 +22°C° 0 mm 4 mps 716 mmHg 77%
09:00 +26°C° 0 mm 5 mps 717 mmHg 62%
10:00 +28°C° 0 mm 6 mps 717 mmHg 47%
11:00 +30°C° 0 mm 6 mps 717 mmHg 41%
12:00 +33°C° 0 mm 6 mps 717 mmHg 34%
13:00 +34°C° 0 mm 5 mps 716 mmHg 27%
14:00 +34°C° 0 mm 5 mps 716 mmHg 27%
15:00 +34°C° 0 mm 6 mps 715 mmHg 27%
16:00 +34°C° 0 mm 6 mps 715 mmHg 26%
17:00 +32°C° 0 mm 5 mps 715 mmHg 33%
18:00 +29°C° 0 mm 5 mps 715 mmHg 39%
19:00 +27°C° 0 mm 5 mps 715 mmHg 45%
20:00 +25°C° 0 mm 5 mps 716 mmHg 55%
21:00 +23°C° 0 mm 5 mps 716 mmHg 65%
22:00 +21°C° 0 mm 5 mps 716 mmHg 76%
23:00 +21°C° 0 mm 5 mps 716 mmHg 79%
Show more

We Need Your Consent

Meteoprog and our Service Providers may store and access personal data such as cookies, device identifiers or other similar technologies on your device and process such data to personalise content and ads, as well as provide social media features and to analyse the traffic.

  • Store and/or access information on your device

    Cookies, device identifiers or other information can be stored or accessed on your device for the purposes indicated above.

  • Personalised ads and content, ad and content measurement, audience insights, and products development

    Ads and content can be personalised based on a profile. More data can be added to better personalise ads and content. Ad and content performance can be measured. Insights about the audience who saw the ads and content can be derived. Such data can be used to develop or improve user’s experience, systems and software.

By clicking ‘I Agree’ you will allow the use of indicated cookies, device identifiers, web beacons or other similar technologies. Your settings can be changed in the browser on your device.

For certain purposes, legitimate interests may be relied on, rather than consent. You can read more about this in our Privacy and Cookie Policy.